History for Miami, FL

Wednesday, January 9, 2013 — View Current Conditions

Jump to Data:

Date:
Airport Code:
Recently Viewed Airport Codes: KMIA
Daily Summary
  Actual Average Record
Temperature
Mean Temperature 79°F 68°F  
Max Temperature 83°F 76°F 84°F (1997)
Min Temperature 75°F 60°F 36°F (1951)
Degree Days
Heating Degree Days 0 2  
Month to date heating degree days 0 18  
Since 1 July heating degree days 16 55  
Cooling Degree Days 14 5  
Month to date cooling degree days 95 45  
Year to date cooling degree days 95 45  
Growing Degree Days 28 (Base 50)    
Moisture
Dew Point 70°F    
Average Humidity 74    
Maximum Humidity 82    
Minimum Humidity 65    
Precipitation
Precipitation 0.00 in 0.05 in 1.85 in (1934)
Month to date precipitation 0.20 0.46  
Year to date precipitation 0.20 0.46  
Snow
Snow 0.00 in in in ()
Month to date snowfall 0.0  
Since 1 July snowfall 0.0  
Snow Depth 0.00 in    
Sea Level Pressure
Sea Level Pressure 30.23 in    
Wind
Wind Speed 15 mph (East)    
Max Wind Speed 24 mph    
Max Gust Speed 32 mph    
Visibility 10 miles    
Events      
T = Trace of Precipitation, MM = Missing Value Source: NWS Daily Summary

Show full METARS

(help) - Comma Delimited File

Hourly Observations

Time(EST) Temperature Dew Point Humidity Sea Level Pressure Visibility Wind Direction Wind Speed Gust Speed Precipitation Events Conditions
12:53 AM 77.0°F 71.1°F 82% 30.17 in 10.0 miles ESE 8.1 mph - N/A   Overcast
1:53 AM 77.0°F 71.1°F 82% 30.17 in 10.0 miles ESE 12.7 mph - N/A   Overcast
2:53 AM 75.9°F 70.0°F 82% 30.18 in 10.0 miles East 10.4 mph - N/A   Overcast
3:53 AM 75.9°F 70.0°F 82% 30.19 in 9.0 miles East 12.7 mph - N/A   Overcast
4:53 AM 75.9°F 70.0°F 82% 30.20 in 10.0 miles ESE 11.5 mph - N/A   Mostly Cloudy
5:53 AM 75.9°F 69.1°F 79% 30.20 in 10.0 miles East 15.0 mph - N/A   Mostly Cloudy
6:53 AM 75.0°F 69.1°F 82% 30.22 in 8.0 miles ESE 11.5 mph - N/A   Mostly Cloudy
7:53 AM 75.2°F 69.8°F 83% 30.24 in 10.0 miles ESE 11.5 mph - N/A   Scattered Clouds
8:05 AM 77.0°F 69.8°F 78% 30.24 in 10.0 miles ESE 13.8 mph - N/A   Mostly Cloudy
8:53 AM 78.1°F 70.0°F 76% 30.26 in 10.0 miles ESE 16.1 mph - N/A   Mostly Cloudy
9:53 AM 80.1°F 70.0°F 71% 30.27 in 10.0 miles East 20.7 mph - N/A   Mostly Cloudy
10:53 AM 82.0°F 70.0°F 67% 30.26 in 10.0 miles East 21.9 mph 27.6 mph N/A   Mostly Cloudy
11:53 AM 81.0°F 70.0°F 69% 30.24 in 10.0 miles ESE 19.6 mph 25.3 mph N/A   Mostly Cloudy
12:53 PM 82.9°F 71.1°F 67% 30.22 in 10.0 miles ESE 15.0 mph - N/A   Mostly Cloudy
1:53 PM 82.0°F 69.1°F 65% 30.21 in 10.0 miles East 18.4 mph 26.5 mph N/A   Mostly Cloudy
2:53 PM 81.0°F 69.1°F 67% 30.20 in 10.0 miles ESE 15.0 mph 21.9 mph N/A   Mostly Cloudy
3:53 PM 80.1°F 69.1°F 69% 30.21 in 10.0 miles East 17.3 mph 21.9 mph N/A   Mostly Cloudy
4:53 PM 79.0°F 69.1°F 72% 30.22 in 10.0 miles East 15.0 mph - N/A   Mostly Cloudy
5:53 PM 78.1°F 70.0°F 76% 30.24 in 10.0 miles East 15.0 mph - N/A   Mostly Cloudy
6:53 PM 77.0°F 69.8°F 78% 30.25 in 10.0 miles East 12.7 mph - N/A   Mostly Cloudy
7:24 PM 77.0°F 69.8°F 78% 30.25 in 10.0 miles East 12.7 mph - N/A   Scattered Clouds
7:53 PM 77.0°F 70.0°F 79% 30.26 in 10.0 miles East 12.7 mph 20.7 mph N/A   Scattered Clouds
8:53 PM 77.0°F 70.0°F 79% 30.25 in 10.0 miles East 20.7 mph 25.3 mph N/A   Scattered Clouds
9:53 PM 75.9°F 70.0°F 82% 30.27 in 10.0 miles East 16.1 mph - N/A   Scattered Clouds
10:53 PM 75.9°F 69.1°F 79% 30.28 in 10.0 miles East 16.1 mph 24.2 mph N/A   Scattered Clouds
11:53 PM 75.9°F 70.0°F 82% 30.28 in 10.0 miles East 15.0 mph 25.3 mph N/A   Mostly Cloudy